Regional Weather Roundup
Issued by NWS

Home | Current Version | Previous Version | Graphics & Text | Print | Product List | Glossary On
Versions: 1 2 3 4 5 6 7 8 9 10 11 12 13 14 15 16 17 18 19 20 21 22 23 24 25 26 27 28 29 30 31 32 33 34 35 36 37 38 39 40 41 42 43 44 45 46 47 48 49 50
000
ASUS45 KTFX 310719
RWRMT
MONTANA HOURLY WEATHER ROUNDUP
NATIONAL WEATHER SERVICE GREAT FALLS MT
1219 AM MST SAT JAN 31 2015

NOTE: "FAIR" INDICATES FEW OR NO CLOUDS BELOW 12000 FEET WITH NO
SIGNIFICANT WEATHER AND/OR OBSTRUCTIONS TO VISIBILITY.

* THESE STATIONS ARE NOT UNDER NWS QUALITY CONTROL. THEY DO NOT
   REPORT WEATHER SUCH AS PRECIPITATION OR FOG.

MTZ001>007-043-310800-
WEST OF THE DIVIDE
CITY           SKY/WX    TMP DP  RH WIND       PRES   REMARKS
KALISPELL      FOG       25  23  92 N3        30.16S VSB 1 1/4
MISSOULA       FOG       21  19  92 CALM      30.18S
BUTTE          PTCLDY    18  14  84 SE10      30.10R WCI   6
MULLAN PASS    CLOUDY    28  21  75 W6        30.07F WCI  21
* ANACONDA     PTCLDY    23  16  74 SW3        N/A
* ESSEX        N/A       16  14  92 N/A        N/A
* EUREKA APT   MOCLDY    27  23  85 N3        30.16R
* HAMILTON APT PTCLDY    28  21  75 S6        30.14S WCI  21
* LIBBY APT    CLOUDY    27  25  92 CALM      30.17F
* LINCOLN      N/A       16  13  88 N1G6       N/A
* LOOKOUT PASS N/A       27  24  88 N/A        N/A
* POLSON       N/A       22  21  96 S1         N/A
* RONAN APT    CLOUDY    23  21  92 N/A        N/A
* SEELEY LAKE  N/A       12   9  88 E1         N/A
* THOMP F APT  CLOUDY    32  10  40 NW9G21     N/A   WCI  24
$$

MTZ008-052>055-310800-
SOUTHWEST MONTANA
CITY           SKY/WX    TMP DP  RH WIND       PRES   REMARKS
BOZEMAN        CLEAR     21  16  81 E6        30.09R WCI  13
DILLON         CLEAR     21  16  81 S10       30.07F WCI  10
* W YELLOWSTON MOCLDY     7   3  83 N/A        N/A
* THREE FORKS  CLEAR     21  21 100 N/A        N/A
* BOULDER HILL N/A       27  11  51 SW9        N/A   WCI  18
* MONIDA PASS  N/A       10   9  96 W6         N/A
* RAYNOLDS PAS N/A       16 -33   9 VRB2       N/A
* WHITEHALL    N/A       20  15  81 W3G12      N/A
* WISE RIVER   N/A       16  11  81 W11G16     N/A   WCI   3
$$

MTZ009>010-012-014-046-048-049-054-310800-
EAST SLOPES AND CENTRAL MONTANA
CITY           SKY/WX    TMP DP  RH WIND       PRES   REMARKS
CUT BANK       CLOUDY    27  23  85 N23       30.02R WCI  13
GREAT FALLS    MOCLDY    34  19  54 SW14      29.97F WCI  24
HELENA         PTCLDY    25  19  78 NW6       30.08F WCI  18
MALMSTROM AFB  MOCLDY    34  19  54 SW13      29.98F WCI  25
* CONRAD       CLOUDY    37  25  62 CALM       N/A
* DEARBORN     N/A       33  19  56 S6         N/A   WCI  27
* EAST GLACIER N/A       34  16  48 W15G20     N/A   WCI  24
* MONARCH      N/A       28   9  45 S8         N/A   WCI  20
* PENDROY      N/A       42  15  33 W22G28     N/A
* ROGERS PASS  N/A       30  17  58 SW4G10     N/A
* SWEET GRASS  N/A       23  23 100 VRB15G24    N/A   WCI  10
* WHITE SULPH  N/A       24  17  75 E3         N/A
$$

MTZ011-013-016-021-035-040-045-047-050-051-310800-
NORTH CENTRAL MONTANA
CITY           SKY/WX    TMP DP  RH WIND       PRES   REMARKS
HAVRE          PTCLDY    25  21  85 E3        29.99F
LEWISTOWN      CLEAR     23  16  74 S3        29.99R
* N BAR RANCH  CLEAR     28  14  56 W8        29.98F WCI  20
* CHINOOK      PTCLDY    28  25  89 E10       30.01F WCI  19
* CHESTER      N/A       25  22  88 N3         N/A
* DENTON       N/A       25  19  78 S8         N/A   WCI  16
* GEYSER       N/A       30  16  56 SW3        N/A
* JUDITH GAP   N/A       26  18  72 SW4        N/A
* LOMA         N/A       29  24  82 S2         N/A
$$

MTZ017>020-022>027-061-062-310800-
NORTHEAST MONTANA
CITY           SKY/WX    TMP DP  RH WIND       PRES   REMARKS
GLASGOW        MOCLDY    28  25  89 E20       30.10R WCI  15
GLENDIVE       CLEAR     25  23  92 NE12      30.10F WCI  14
JORDAN         CLEAR     21  19  92 E6        30.03F WCI  13
SIDNEY         CLOUDY    27  25  92 NE12      30.19S VSB 2    WCI  16
WOLF POINT     FOG       28  25  89 E20G25    30.16R WCI  15
* BEAVER HILL  N/A       27  23  85 E8         N/A   WCI  19
* CIRCLE       N/A       28  25  89 NE4        N/A
* LINDSAY DVD  N/A       24  23  96 E8         N/A   WCI  15
* NAVAJO       N/A       20  18  92 NE12       N/A   WCI   8
* PLENTYWOOD A MOCLDY    19  19 100 NE12      30.19F WCI   6
* POPLAR APT   PTCLDY    25  23  92 N/A       30.17S VSB 1 1/4
* SACO         N/A       25  23  92 NE10       N/A   WCI  15
* SCOBEY APT   MOCLDY    21  16  81 NE10G16    N/A   WCI  10
$$

MTZ028>042-056>058-310800-
SOUTHCENTRAL AND SOUTHEAST MONTANA
CITY           SKY/WX    TMP DP  RH WIND       PRES   REMARKS
BAKER          PTCLDY    25  21  85 E7        30.09F WCI  17
BILLINGS       PTCLDY    34  25  70 SW14      30.01F WCI  24
LIVINGSTON     CLEAR     30  18  61 W14       30.02F WCI  19
MILES CITY     PTCLDY    27  23  85 SE7       30.06F WCI  19
* BIG TIMBER A CLEAR     28  18  66 W5        30.00F WCI  22
* FORSYTH APT  PTCLDY    28  25  89 E3        30.04F
* LAUREL APT   MOCLDY    34  21  59 SW6        N/A   WCI  29
* ROUNDUP APT  CLEAR     30  18  61 N/A        N/A
* ALZADA       N/A       25  21  85 E2         N/A
* HYSHAM       N/A       37  14  39 W4G9       N/A
* LAME DEER    N/A       32  18  56 SE6        N/A   WCI  26
* REED POINT   N/A       23  19  85 W2         N/A
$$

REGIONAL REPORTS...DAKOTAS
CITY           SKY/WX    TMP DP  RH WIND       PRES   REMARKS
WILLISTON      CLOUDY    21  19  92 NE14      30.20S WCI   8
DICKINSON      MOCLDY    27  21  78 NE10      30.11F WCI  18
BEACH          CLEAR     25  25 100 CALM      30.11F
CROSBY         CLOUDY    21  21 100 NE9       30.24S WCI  11
TIOGA          CLOUDY    23  23 100 E12       30.22S WCI  11
WATFORD CITY   CLOUDY    23  21  92 NE8       30.17S WCI  14
BISMARCK       CLOUDY    25  21  85 NE10      30.20R WCI  15
GRAND FORKS    CLOUDY    18  12  77 N21       30.25R WCI   1
FARGO          CLOUDY    21  16  81 N22G30    30.18S WCI   5
BUFFALO SD     PTCLDY    30  25  82 CALM      30.03F
RAPID CITY     CLOUDY    30  23  75 N8        30.09F WCI  22
$$

REGIONAL REPORTS...WYOMING/IDAHO/WASHINGTON
CITY           SKY/WX    TMP DP  RH WIND       PRES   REMARKS
GILLETTE       CLOUDY    28  23  81 S7        30.04F WCI  21
SHERIDAN       CLOUDY    25  19  78 CALM      30.02F
CODY           CLOUDY    28  18  66 S7        30.02F WCI  21
YELLOWSTONE LA CLOUDY     3   0  87 CALM      30.11S
SALMON         CLOUDY    27  19  72 CALM      30.23F
MULLAN PASS    CLOUDY    28  21  75 W6        30.07S WCI  21
SAND POINT     CLOUDY    32  32 100 SW8       30.22F WCI  25
SPOKANE        LGT SNOW  30  28  92 SW7       30.22F WCI  23
$$

REGIONAL REPORTS...ALBERTA
CITY           SKY/WX    TMP DP  RH WIND       PRES   REMARKS
CALGARY        LGT SNOW  19  18  96 N16       30.18R VSB 2 1/2 WCI   4
LETHBRIDGE     FOG       27  27 100 N13G22    30.11R VSB 3    WCI  16
MEDICINE HAT   CLOUDY    25  23  92 NE12G18   30.13R WCI  14
EDMONTON       LGT SNOW   7   1  76 N14       30.41R VSB 2    WCI -10
WATERTON GATE  N/A       25  23  92 N7         N/A   WCI  17
CARDSTON       N/A       27  27 100 N12        N/A   WCI  16
MILK RIVER     N/A       27  25  92 N18G25     N/A   WCI  14
$$

REGIONAL REPORTS...SASKATCHEWAN
CITY           SKY/WX    TMP DP  RH WIND       PRES   REMARKS
SWIFT CURRENT  LGT SNOW  18  16  92 E20G25    30.17S VSB 3    WCI   2
REGINA         LGT SNOW  10   7  88 NE16      30.31R VSB 3    WCI  -7
VAL MARIE      N/A       25  25 100 E16        N/A   WCI  12
ASSINIBOIA     N/A       18  18 100 NE12       N/A   WCI   5
CORONACH       N/A       19  18  96 NE12       N/A   WCI   6

$$



USA.gov is the U.S. government's official web portal to all federal, state and local government web resources and services.